Tracking 19176 objects as of 26-May-2018
HD Live streaming from Space Station
objects crossing your sky now

MINOTAUR R/B

Track MINOTAUR R/B now!
10-day predictions


NORAD ID: 26066
Int'l Code: 2000-004F
Perigee: 749.5 km
Apogee: 797.5 km
Inclination: 100.2 °
Period: 100.2 minutes
Semi major axis: 7144 km
RCS: 1.5369 m2 (large)
Launch date: January 27, 2000
Source: United States (US)
Launch site: AIR FORCE WESTERN TEST RANGE (AFWTR)

Note: This is a ROCKET BODY
aabbcc
Your satellite tracking list
Your tracking list is empty




NASA's NSSDC Master Catalog

Two Line Element Set (TLE):
1 26066U 00004F   18145.50627696 -.00000028 +00000-0 +10319-4 0  9993
2 26066 100.1901 230.6074 0033561 039.7840 081.2015 14.37625756961048
Source of the keplerian elements: AFSPC